2015-10-09 00:06:04 r, 18.59m,0000000003Hz,0000142070c,0000000.308s, 022.5C,00002195
2015-10-09 00:16:06 r, 18.58m,0000000004Hz,0000140199c,0000000.304s, 022.5C,00002195
2015-10-09 00:26:04 r, 18.59m,0000000004Hz,0000142197c,0000000.309s, 022.2C,00002195
2015-10-09 00:36:04 r, 18.59m,0000000004Hz,0000142295c,0000000.309s, 022.2C,00002195
2015-10-09 00:46:05 r, 18.61m,0000000004Hz,0000143822c,0000000.312s, 022.2C,00002195
2015-10-09 00:56:07 r, 18.60m,0000000003Hz,0000143041c,0000000.310s, 022.2C,00002195
2015-10-09 01:06:04 r, 18.62m,0000000003Hz,0000145052c,0000000.315s, 021.9C,00002195
2015-10-09 01:16:04 r, 18.62m,0000000004Hz,0000145825c,0000000.316s, 021.9C,00002195
2015-10-09 01:26:05 r, 18.62m,0000000003Hz,0000145975c,0000000.317s, 021.9C,00002195
2015-10-09 01:36:04 r, 18.63m,0000000003Hz,0000146784c,0000000.319s, 021.9C,00002195
2015-10-09 01:46:07 r, 18.63m,0000000003Hz,0000146538c,0000000.318s, 021.5C,00002195
2015-10-09 01:56:05 r, 18.63m,0000000003Hz,0000146859c,0000000.319s, 021.5C,00002195
2015-10-09 02:06:05 r, 18.63m,0000000003Hz,0000147101c,0000000.319s, 021.5C,00002195
2015-10-09 02:16:05 r, 18.64m,0000000003Hz,0000147629c,0000000.320s, 021.5C,00002195
2015-10-09 02:26:04 r, 18.64m,0000000003Hz,0000147517c,0000000.320s, 021.2C,00002195
2015-10-09 02:36:05 r, 18.64m,0000000003Hz,0000147852c,0000000.321s, 021.2C,00002195
2015-10-09 02:46:05 r, 18.64m,0000000003Hz,0000147745c,0000000.321s, 021.2C,00002195
2015-10-09 02:56:07 r, 18.64m,0000000003Hz,0000147827c,0000000.321s, 021.2C,00002195
2015-10-09 03:06:05 r, 18.66m,0000000003Hz,0000149594c,0000000.325s, 021.2C,00002195
2015-10-09 03:16:05 r, 18.65m,0000000003Hz,0000151002c,0000000.328s, 020.9C,00002195
2015-10-09 03:26:07 r, 18.66m,0000000003Hz,0000151567c,0000000.329s, 020.9C,00002195
2015-10-09 03:36:04 r, 18.65m,0000000003Hz,0000151353c,0000000.328s, 020.9C,00002195
2015-10-09 03:46:07 r, 18.63m,0000000003Hz,0000147965c,0000000.321s, 020.9C,00002195
2015-10-09 03:56:05 r, 18.64m,0000000003Hz,0000148761c,0000000.323s, 020.6C,00002195
2015-10-09 04:06:05 r, 18.41m,0000000004Hz,0000119925c,0000000.260s, 020.6C,00002195
2015-10-09 04:16:05 r, 18.64m,0000000004Hz,0000148705c,0000000.323s, 020.6C,00002195
2015-10-09 04:26:05 r, 18.63m,0000000003Hz,0000147784c,0000000.321s, 020.3C,00002195
2015-10-09 04:36:05 r, 18.61m,0000000003Hz,0000144773c,0000000.314s, 020.3C,00002195
2015-10-09 04:46:05 r, 18.59m,0000000003Hz,0000142949c,0000000.310s, 020.3C,00002195
2015-10-09 04:56:05 r, 18.58m,0000000003Hz,0000142109c,0000000.308s, 020.3C,00002195
2015-10-09 05:06:05 r, 18.58m,0000000003Hz,0000142096c,0000000.308s, 019.9C,00002195
2015-10-09 05:16:06 r, 18.58m,0000000003Hz,0000140996c,0000000.306s, 019.9C,00002195
2015-10-09 05:26:05 r, 18.58m,0000000003Hz,0000142031c,0000000.308s, 019.9C,00002195
2015-10-09 05:36:05 r, 18.56m,0000000004Hz,0000138294c,0000000.300s, 019.9C,00002195
2015-10-09 05:46:07 r, 18.55m,0000000004Hz,0000138172c,0000000.300s, 019.9C,00002195
2015-10-09 05:56:05 r, 18.55m,0000000003Hz,0000138191c,0000000.300s, 019.9C,00002195
2015-10-09 06:06:05 r, 18.54m,0000000004Hz,0000137089c,0000000.298s, 019.9C,00002195
2015-10-09 06:16:07 r, 18.51m,0000000003Hz,0000132493c,0000000.288s, 019.9C,00002195
2015-10-09 06:26:05 r, 18.39m,0000000004Hz,0000118286c,0000000.257s, 019.9C,00002195
2015-10-09 06:36:05 r, 18.02m,0000000006Hz,0000084152c,0000000.183s, 019.9C,00002195
2015-10-09 06:46:06 r, 17.13m,0000000012Hz,0000037336c,0000000.081s, 019.9C,00002195
2015-10-09 06:56:05 r, 15.67m,0000000048Hz,0000009677c,0000000.021s, 019.9C,00002195
2015-10-09 07:06:05 r, 13.64m,0000000310Hz,0000000000c,0000000.000s, 019.9C,00002195
2015-10-09 07:16:05 r, 11.47m,0000002303Hz,0000000000c,0000000.000s, 020.3C,00002195
2015-10-09 07:26:05 r, 09.49m,0000014226Hz,0000000000c,0000000.000s, 019.9C,00002195
2015-10-09 07:36:05 r, 08.03m,0000054286Hz,0000000000c,0000000.000s, 019.9C,00002195
2015-10-09 07:46:05 r, 07.06m,0000133976Hz,0000000000c,0000000.000s, 019.6C,00002195
2015-10-09 07:56:07 r, 06.37m,0000253396Hz,0000000000c,0000000.000s, 019.9C,00002195
2015-10-09 08:06:05 r, 00.00m,0000404159Hz,0000000000c,0000000.000s, 019.9C,00002195
2015-10-09 08:16:05 r, 00.00m,0000563423Hz,0000000000c,0000000.000s, 019.9C,00002195
2015-10-09 08:26:06 r, 00.00m,0000563324Hz,0000000000c,0000000.000s, 020.3C,00002195
2015-10-09 08:36:05 r, 00.00m,0000563438Hz,0000000000c,0000000.000s, 020.6C,00002195
2015-10-09 08:46:06 r, 00.00m,0000563531Hz,0000000000c,0000000.000s, 020.6C,00002195
2015-10-09 08:56:05 r, 00.00m,0000563473Hz,0000000000c,0000000.000s, 020.9C,00002195
2015-10-09 09:06:05 r, 00.00m,0000563442Hz,0000000000c,0000000.000s, 021.2C,00002195
2015-10-09 09:16:06 r, 00.00m,0000563651Hz,0000000000c,0000000.000s, 022.2C,00002195
2015-10-09 09:26:05 r, 00.00m,0000563665Hz,0000000000c,0000000.000s, 022.8C,00002195
2015-10-09 09:36:05 r, 00.00m,0000563752Hz,0000000000c,0000000.000s, 023.5C,00002195
2015-10-09 09:46:06 r, 00.00m,0000563905Hz,0000000000c,0000000.000s, 024.1C,00002195
2015-10-09 09:56:05 r, 00.00m,0000564039Hz,0000000000c,0000000.000s, 025.1C,00002195
2015-10-09 10:06:05 r, 00.00m,0000564188Hz,0000000000c,0000000.000s, 026.7C,00002195
2015-10-09 10:16:05 r, 00.00m,0000564243Hz,0000000000c,0000000.000s, 028.0C,00002195
2015-10-09 10:26:05 r, 00.00m,0000564498Hz,0000000000c,0000000.000s, 029.3C,00002195
2015-10-09 10:36:05 r, 00.00m,0000564587Hz,0000000000c,0000000.000s, 029.9C,00002195
2015-10-09 10:46:05 r, 00.00m,0000564593Hz,0000000000c,0000000.000s, 030.2C,00002195
2015-10-09 10:56:05 r, 00.00m,0000564702Hz,0000000000c,0000000.000s, 031.5C,00002195
2015-10-09 11:06:05 r, 00.00m,0000564744Hz,0000000000c,0000000.000s, 032.5C,00002195
2015-10-09 11:16:05 r, 00.00m,0000564942Hz,0000000000c,0000000.000s, 033.1C,00002195
2015-10-09 11:26:05 r, 00.00m,0000564990Hz,0000000000c,0000000.000s, 034.1C,00002195
2015-10-09 11:36:05 r, 00.00m,0000564915Hz,0000000000c,0000000.000s, 034.1C,00002195
2015-10-09 11:46:05 r, 00.00m,0000564941Hz,0000000000c,0000000.000s, 033.5C,00002195
2015-10-09 11:56:07 r, 00.00m,0000564928Hz,0000000000c,0000000.000s, 033.8C,00002195
2015-10-09 12:06:05 r, 00.00m,0000564937Hz,0000000000c,0000000.000s, 033.8C,00002195
2015-10-09 12:16:05 r, 00.00m,0000564980Hz,0000000000c,0000000.000s, 034.1C,00002195
2015-10-09 12:26:05 r, 00.00m,0000564992Hz,0000000000c,0000000.000s, 034.4C,00002195
2015-10-09 12:36:05 r, 00.00m,0000565030Hz,0000000000c,0000000.000s, 034.4C,00002195
2015-10-09 12:46:05 r, 00.00m,0000565046Hz,0000000000c,0000000.000s, 034.4C,00002195
2015-10-09 12:56:05 r, 00.00m,0000565075Hz,0000000000c,0000000.000s, 035.1C,00002195
2015-10-09 13:06:05 r, 00.00m,0000565166Hz,0000000000c,0000000.000s, 035.4C,00002195
2015-10-09 13:16:05 r, 00.00m,0000565159Hz,0000000000c,0000000.000s, 035.7C,00002195
2015-10-09 13:26:06 r, 00.00m,0000565155Hz,0000000000c,0000000.000s, 035.1C,00002195
2015-10-09 13:36:05 r, 00.00m,0000565088Hz,0000000000c,0000000.000s, 035.1C,00002195
2015-10-09 13:46:05 r, 00.00m,0000565050Hz,0000000000c,0000000.000s, 035.1C,00002195
2015-10-09 13:56:07 r, 00.00m,0000565065Hz,0000000000c,0000000.000s, 034.8C,00002195
2015-10-09 14:06:05 r, 00.00m,0000565129Hz,0000000000c,0000000.000s, 035.1C,00002195
2015-10-09 14:16:05 r, 00.00m,0000565159Hz,0000000000c,0000000.000s, 035.7C,00002195
2015-10-09 14:26:06 r, 00.00m,0000565176Hz,0000000000c,0000000.000s, 035.7C,00002195
2015-10-09 14:36:05 r, 00.00m,0000565001Hz,0000000000c,0000000.000s, 035.1C,00002195
2015-10-09 14:46:05 r, 00.00m,0000565063Hz,0000000000c,0000000.000s, 034.8C,00002195
2015-10-09 14:56:06 r, 00.00m,0000565048Hz,0000000000c,0000000.000s, 035.1C,00002195
2015-10-09 15:06:06 r, 00.00m,0000565096Hz,0000000000c,0000000.000s, 036.0C,00002195
2015-10-09 15:16:07 r, 00.00m,0000565153Hz,0000000000c,0000000.000s, 036.4C,00002195
2015-10-09 15:26:06 r, 00.00m,0000565168Hz,0000000000c,0000000.000s, 036.7C,00002195
2015-10-09 15:36:06 r, 00.00m,0000565208Hz,0000000000c,0000000.000s, 037.0C,00002195
2015-10-09 15:46:05 r, 00.00m,0000565213Hz,0000000000c,0000000.000s, 037.7C,00002195
2015-10-09 15:56:07 r, 00.00m,0000565181Hz,0000000000c,0000000.000s, 037.7C,00002195
2015-10-09 16:06:06 r, 00.00m,0000565036Hz,0000000000c,0000000.000s, 036.7C,00002195
2015-10-09 16:16:05 r, 00.00m,0000565036Hz,0000000000c,0000000.000s, 036.4C,00002195
2015-10-09 16:26:07 r, 00.00m,0000564903Hz,0000000000c,0000000.000s, 035.7C,00002195
2015-10-09 16:36:06 r, 00.00m,0000564933Hz,0000000000c,0000000.000s, 035.4C,00002195
2015-10-09 16:46:05 r, 00.00m,0000564845Hz,0000000000c,0000000.000s, 034.4C,00002195
2015-10-09 16:56:05 r, 00.00m,0000564712Hz,0000000000c,0000000.000s, 033.1C,00002195
2015-10-09 17:06:05 r, 00.00m,0000564498Hz,0000000000c,0000000.000s, 031.9C,00002195
2015-10-09 17:16:05 r, 00.00m,0000564480Hz,0000000000c,0000000.000s, 031.2C,00002195
2015-10-09 17:26:06 r, 00.00m,0000564447Hz,0000000000c,0000000.000s, 030.6C,00002195
2015-10-09 17:36:07 r, 00.00m,0000564395Hz,0000000000c,0000000.000s, 030.6C,00002195
2015-10-09 17:46:05 r, 00.00m,0000564408Hz,0000000000c,0000000.000s, 030.9C,00002195
2015-10-09 17:56:06 r, 00.00m,0000564503Hz,0000000000c,0000000.000s, 031.2C,00002195
2015-10-09 18:06:06 r, 00.00m,0000564468Hz,0000000000c,0000000.000s, 030.9C,00002195
2015-10-09 18:16:05 r, 00.00m,0000450407Hz,0000000000c,0000000.000s, 030.6C,00002195
2015-10-09 18:26:06 r, 06.08m,0000328280Hz,0000000000c,0000000.000s, 030.2C,00002195
2015-10-09 18:36:06 r, 06.63m,0000199252Hz,0000000000c,0000000.000s, 029.6C,00002195
2015-10-09 18:46:05 r, 07.34m,0000102751Hz,0000000000c,0000000.000s, 029.0C,00002195
2015-10-09 18:56:07 r, 08.42m,0000038228Hz,0000000000c,0000000.000s, 028.6C,00002195
2015-10-09 19:06:06 r, 09.99m,0000009006Hz,0000000000c,0000000.000s, 028.3C,00002195
2015-10-09 19:16:05 r, 12.07m,0000001335Hz,0000000000c,0000000.000s, 028.0C,00002195
2015-10-09 19:26:06 r, 14.24m,0000000179Hz,0000000000c,0000000.000s, 028.0C,00002195
2015-10-09 19:36:06 r, 16.25m,0000000028Hz,0000016487c,0000000.036s, 028.0C,00002195
2015-10-09 19:46:05 r, 17.49m,0000000009Hz,0000051928c,0000000.113s, 027.7C,00002195
2015-10-09 19:56:06 r, 18.06m,0000000006Hz,0000087362c,0000000.190s, 027.7C,00002195
2015-10-09 20:06:06 r, 18.22m,0000000005Hz,0000100805c,0000000.219s, 027.7C,00002195
2015-10-09 20:16:05 r, 18.15m,0000000005Hz,0000093977c,0000000.204s, 027.7C,00002195
2015-10-09 20:26:05 r, 18.24m,0000000005Hz,0000102900c,0000000.223s, 027.7C,00002195
2015-10-09 20:36:06 r, 18.22m,0000000005Hz,0000100805c,0000000.219s, 027.7C,00002195
2015-10-09 20:46:05 r, 18.11m,0000000005Hz,0000090298c,0000000.196s, 027.3C,00002195
2015-10-09 20:56:05 r, 18.08m,0000000005Hz,0000088844c,0000000.193s, 027.3C,00002195
2015-10-09 21:06:06 r, 18.12m,0000000005Hz,0000091142c,0000000.198s, 027.3C,00002195
2015-10-09 21:16:05 r, 18.01m,0000000005Hz,0000082549c,0000000.179s, 027.3C,00002195
2015-10-09 21:26:06 r, 18.05m,0000000006Hz,0000086250c,0000000.187s, 027.3C,00002195
2015-10-09 21:36:05 r, 17.30m,0000000010Hz,0000043303c,0000000.094s, 027.3C,00002195
2015-10-09 21:46:05 r, 16.74m,0000000018Hz,0000025822c,0000000.056s, 027.3C,00002195
2015-10-09 21:56:06 r, 16.63m,0000000019Hz,0000023324c,0000000.051s, 027.3C,00002195
2015-10-09 22:06:06 r, 16.67m,0000000019Hz,0000024076c,0000000.052s, 027.7C,00002195
2015-10-09 22:16:05 r, 16.08m,0000000033Hz,0000014037c,0000000.030s, 027.7C,00002195
2015-10-09 22:26:06 r, 16.41m,0000000024Hz,0000019198c,0000000.042s, 027.7C,00002195
2015-10-09 22:36:05 r, 16.17m,0000000030Hz,0000015329c,0000000.033s, 027.7C,00002195
2015-10-09 22:46:05 r, 16.67m,0000000019Hz,0000024166c,0000000.052s, 027.7C,00002195
2015-10-09 22:56:05 r, 17.27m,0000000011Hz,0000042366c,0000000.092s, 027.7C,00002195
2015-10-09 23:06:06 r, 17.19m,0000000012Hz,0000039338c,0000000.085s, 027.7C,00002195
2015-10-09 23:16:05 r, 17.72m,0000000007Hz,0000063251c,0000000.137s, 027.3C,00002195
2015-10-09 23:26:08 r, 18.36m,0000000004Hz,0000114248c,0000000.248s, 027.3C,00002195
2015-10-09 23:36:05 r, 18.42m,0000000003Hz,0000120775c,0000000.262s, 027.0C,00002195
2015-10-09 23:46:05 r, 18.46m,0000000003Hz,0000125788c,0000000.273s, 027.0C,00002195
2015-10-09 23:56:05 r, 18.48m,0000000004Hz,0000127342c,0000000.276s, 027.0C,00002195
